Location: Bathsheba
(13.2167°N, 59.5167°W)
Time: 23:20:13
(UTC+00:00)

YAOGAN 1 - Pass Details

Date: 18 September 2020
Orbit: 618 x 620 km, 97.9° (Epoch: 20 October)

Event Time Altitude Azimuth Distance (km) Brightness Sun altitude
Rises 23:03:55 0° 172° (S) 2,885 5.9 -17.2°
Reaches altitude 10° 23:06:06 10° 174° (S) 1,980 5.0 -17.7°
Maximum altitude 23:10:24 73° 258° (WSW) 648 2.7 -18.7°
Drops below altitude 10° 23:14:42 10° 344° (NNW) 1,981 5.4 -19.8°
Sets 23:16:53 0° 346° (NNW) 2,887 6.3 -20.3°
